PHRAC EHRD-EHRD

Flight info

Callsign PHRAC
Flight time 0h 14m
Altitude 500
Route RTM
Aircraft DA40/L-SDGRY/S

Departure

Time 2026-05-07 18:25
Airport Rotterdam The Hague Airport (EHRD)

Arrival

Time 2026-05-07 18:39
Airport Rotterdam The Hague Airport (EHRD)
Time Latitude Longitude Altitude Speed Heading
2026-05-07 17:48 51.95023 4.42791 -12 ft 0 kts 145°
2026-05-07 17:54 51.95019 4.42817 -12 ft 5 kts 61°
2026-05-07 17:55 51.95041 4.42875 -12 ft 9 kts 57°
2026-05-07 17:55 51.95053 4.42904 -12 ft 0 kts 56°
2026-05-07 17:55 51.95054 4.42907 -12 ft 0 kts 56°
2026-05-07 17:57 51.95094 4.43006 -12 ft 19 kts 54°
2026-05-07 17:58 51.95172 4.43105 -11 ft 7 kts 346°
2026-05-07 17:58 51.95195 4.43097 -11 ft 0 kts
2026-05-07 18:00 51.95204 4.43097 -11 ft 9 kts
2026-05-07 18:00 51.95297 4.43106 -11 ft 12 kts 13°
2026-05-07 18:00 51.95343 4.43165 -11 ft 0 kts 57°
2026-05-07 18:01 51.95349 4.43181 -11 ft 0 kts 58°
2026-05-07 18:01 51.95350 4.43182 -11 ft 3 kts 58°
2026-05-07 18:01 51.95451 4.43429 -11 ft 47 kts 58°
2026-05-07 18:01 51.95677 4.44015 63 ft 64 kts 53°
2026-05-07 18:02 51.96269 4.44121 344 ft 75 kts 284°
2026-05-07 18:02 51.96215 4.43151 416 ft 98 kts 266°
2026-05-07 18:02 51.95930 4.42064 481 ft 109 kts 240°
2026-05-07 18:03 51.95510 4.41048 531 ft 108 kts 240°
2026-05-07 18:03 51.95055 4.40069 472 ft 104 kts 215°
2026-05-07 18:03 51.94440 4.40063 398 ft 81 kts 130°
2026-05-07 18:03 51.94481 4.40902 328 ft 83 kts 67°
2026-05-07 18:04 51.94743 4.41684 225 ft 74 kts 51°
2026-05-07 18:04 51.95012 4.42372 124 ft 73 kts 51°
2026-05-07 18:04 51.95293 4.43014 311 ft 70 kts 51°
2026-05-07 18:04 51.95665 4.43452 493 ft 81 kts 349°
2026-05-07 18:05 51.95994 4.42592 516 ft 111 kts 269°
2026-05-07 18:05 51.95638 4.41423 458 ft 121 kts 239°
2026-05-07 18:05 51.95165 4.40321 449 ft 113 kts 227°
2026-05-07 18:05 51.94522 4.40048 390 ft 91 kts 150°
2026-05-07 18:06 51.94462 4.40866 335 ft 76 kts 62°
2026-05-07 18:06 51.94705 4.41591 239 ft 72 kts 51°
2026-05-07 18:06 51.94971 4.42270 157 ft 70 kts 53°
2026-05-07 18:06 51.95239 4.42924 47 ft 64 kts 52°
2026-05-07 18:07 51.95462 4.43477 -9 ft 54 kts 52°
2026-05-07 18:07 51.95694 4.44040 55 ft 69 kts 53°
2026-05-07 18:07 51.95980 4.44617 305 ft 68 kts 26°
2026-05-07 18:07 51.96384 4.44261 393 ft 92 kts 287°
2026-05-07 18:08 51.96176 4.43158 373 ft 114 kts 241°
2026-05-07 18:08 51.95782 4.42041 465 ft 114 kts 243°
2026-05-07 18:08 51.95373 4.40937 534 ft 119 kts 238°
2026-05-07 18:08 51.94856 4.39853 493 ft 116 kts 217°
2026-05-07 18:09 51.94323 4.40120 481 ft 78 kts 94°
2026-05-07 18:09 51.94467 4.40971 348 ft 81 kts 53°
2026-05-07 18:09 51.94747 4.41703 231 ft 73 kts 50°
2026-05-07 18:09 51.95015 4.42408 126 ft 71 kts 47°
2026-05-07 18:10 51.95289 4.43040 38 ft 67 kts 55°
2026-05-07 18:10 51.95478 4.43688 176 ft 63 kts 91°
2026-05-07 18:10 51.95182 4.44138 328 ft 62 kts 184°
2026-05-07 18:10 51.94836 4.43653 405 ft 74 kts 237°
2026-05-07 18:11 51.94503 4.42899 463 ft 97 kts 236°
2026-05-07 18:11 51.94221 4.42271 506 ft 111 kts 237°
2026-05-07 18:11 51.93804 4.41245 487 ft 105 kts 245°
2026-05-07 18:11 51.93863 4.40350 438 ft 77 kts 330°
2026-05-07 18:12 51.94306 4.40648 351 ft 74 kts 44°
2026-05-07 18:12 51.94580 4.41292 260 ft 67 kts 50°
2026-05-07 18:12 51.94851 4.41958 191 ft 72 kts 50°
2026-05-07 18:12 51.95127 4.42646 92 ft 73 kts 52°
2026-05-07 18:13 51.95392 4.43298 9 ft 66 kts 51°
2026-05-07 18:13 51.95613 4.43846 -11 ft 62 kts 46°
2026-05-07 18:13 51.95846 4.44460 138 ft 64 kts 54°
2026-05-07 18:13 51.96196 4.44600 275 ft 62 kts 320°
2026-05-07 18:14 51.96340 4.43901 355 ft 76 kts 249°
2026-05-07 18:14 51.96166 4.43056 360 ft 81 kts 290°
2026-05-07 18:14 51.96587 4.42670 444 ft 74 kts 14°
2026-05-07 18:14 51.96742 4.43372 504 ft 88 kts 122°
2026-05-07 18:15 51.96209 4.43103 437 ft 107 kts 240°
2026-05-07 18:15 51.95998 4.41974 472 ft 105 kts 241°
2026-05-07 18:15 51.95524 4.41055 439 ft 104 kts 232°
2026-05-07 18:15 51.95044 4.40191 483 ft 103 kts 229°
2026-05-07 18:16 51.94554 4.39362 442 ft 95 kts 230°
2026-05-07 18:16 51.94085 4.39197 514 ft 85 kts 98°
2026-05-07 18:16 51.94177 4.40261 369 ft 99 kts 60°
2026-05-07 18:16 51.94513 4.41146 307 ft 85 kts 52°
2026-05-07 18:17 51.94820 4.41867 170 ft 71 kts 49°
2026-05-07 18:17 51.95103 4.42558 95 ft 75 kts 53°
2026-05-07 18:17 51.95370 4.43255 159 ft 64 kts 54°
2026-05-07 18:17 51.95637 4.43880 251 ft 69 kts 34°
2026-05-07 18:18 51.95969 4.43588 301 ft 86 kts 275°
2026-05-07 18:18 51.95696 4.42645 493 ft 97 kts 253°
2026-05-07 18:18 51.95564 4.41512 568 ft 107 kts 263°
2026-05-07 18:18 51.95144 4.40461 584 ft 113 kts 223°
2026-05-07 18:19 51.94613 4.40665 585 ft 78 kts 100°
2026-05-07 18:19 51.94680 4.41507 266 ft 78 kts 59°
2026-05-07 18:19 51.94951 4.42204 161 ft 70 kts 54°
2026-05-07 18:19 51.95207 4.42848 68 ft 66 kts 52°
2026-05-07 18:20 51.95455 4.43443 -5 ft 56 kts 52°
2026-05-07 18:20 51.95687 4.44026 -11 ft 76 kts 53°
2026-05-07 18:20 51.95994 4.44582 247 ft 64 kts
2026-05-07 18:20 51.96282 4.43933 362 ft 94 kts 275°
2026-05-07 18:21 51.96104 4.42798 414 ft 113 kts 240°
2026-05-07 18:21 51.95694 4.41760 526 ft 111 kts 240°
2026-05-07 18:21 51.95262 4.40728 549 ft 107 kts 239°
2026-05-07 18:21 51.94844 4.39783 456 ft 102 kts 237°
2026-05-07 18:22 51.94335 4.39294 488 ft 80 kts 145°
2026-05-07 18:22 51.94207 4.39790 430 ft 68 kts 86°
2026-05-07 18:22 51.94393 4.40687 288 ft 62 kts 56°
2026-05-07 18:22 51.94608 4.41312 254 ft 63 kts 56°
2026-05-07 18:23 51.94841 4.41922 217 ft 67 kts 44°
2026-05-07 18:23 51.95076 4.42541 97 ft 61 kts 46°
2026-05-07 18:23 51.95314 4.43108 32 ft 58 kts 53°
2026-05-07 18:23 51.95518 4.43602 -11 ft 51 kts 58°
2026-05-07 18:24 51.95760 4.44202 33 ft 71 kts 53°
2026-05-07 18:24 51.96037 4.44630 324 ft 53 kts 350°
2026-05-07 18:24 51.96293 4.44094 403 ft 79 kts 282°
2026-05-07 18:24 51.96244 4.43045 474 ft 106 kts 251°
2026-05-07 18:25 51.95799 4.41978 510 ft 121 kts 237°
2026-05-07 18:25 51.95278 4.40907 575 ft 123 kts 232°
2026-05-07 18:25 51.94637 4.40016 701 ft 114 kts 195°
2026-05-07 18:25 51.94265 4.40706 674 ft 99 kts 50°
2026-05-07 18:26 51.94724 4.41730 389 ft 120 kts 53°
2026-05-07 18:26 51.95164 4.42736 106 ft 101 kts 56°
2026-05-07 18:26 51.95511 4.43602 54 ft 84 kts 51°
2026-05-07 18:26 51.95846 4.44306 374 ft 83 kts 37°
2026-05-07 18:27 51.96401 4.44306 582 ft 94 kts 322°
2026-05-07 18:27 51.96437 4.43282 609 ft 112 kts 239°
2026-05-07 18:27 51.96051 4.42506 1143 ft 71 kts 226°
2026-05-07 18:27 51.95718 4.41959 1400 ft 68 kts 224°
2026-05-07 18:28 51.95385 4.41307 1516 ft 93 kts 232°
2026-05-07 18:28 51.94941 4.40474 1713 ft 106 kts 261°
2026-05-07 18:28 51.95317 4.39440 1671 ft 119 kts 333°
2026-05-07 18:28 51.96131 4.39265 1650 ft 119 kts 25°
2026-05-07 18:29 51.96426 4.40422 1607 ft 127 kts 108°
2026-05-07 18:29 51.95762 4.41456 1497 ft 129 kts 140°
2026-05-07 18:29 51.95059 4.42315 1421 ft 118 kts 140°
2026-05-07 18:29 51.94459 4.43044 1548 ft 105 kts 142°
2026-05-07 18:30 51.93832 4.43696 1512 ft 108 kts 143°
2026-05-07 18:30 51.93207 4.44413 1458 ft 112 kts 141°
2026-05-07 18:30 51.92570 4.45156 1431 ft 112 kts 141°
2026-05-07 18:30 51.91940 4.45886 1407 ft 112 kts 141°
2026-05-07 18:31 51.91303 4.46578 1458 ft 106 kts 141°
2026-05-07 18:31 51.90699 4.47262 1471 ft 108 kts 144°
2026-05-07 18:31 51.90065 4.47023 1613 ft 103 kts 246°
2026-05-07 18:31 51.90017 4.45814 1470 ft 116 kts 269°
2026-05-07 18:32 51.89979 4.44501 1418 ft 117 kts 270°
2026-05-07 18:32 51.89920 4.43217 1461 ft 114 kts 265°
2026-05-07 18:32 51.89814 4.41936 1455 ft 114 kts 266°
2026-05-07 18:32 51.89737 4.40666 1493 ft 113 kts 268°
2026-05-07 18:33 51.89674 4.39400 1507 ft 113 kts 268°
2026-05-07 18:33 51.89573 4.38109 1477 ft 116 kts 265°
2026-05-07 18:33 51.89485 4.36809 1443 ft 118 kts 266°
2026-05-07 18:33 51.89392 4.35492 1436 ft 118 kts 265°
2026-05-07 18:34 51.89306 4.34180 1473 ft 113 kts 268°
2026-05-07 18:34 51.89261 4.32917 1483 ft 114 kts 273°
2026-05-07 18:34 51.89329 4.31640 1498 ft 113 kts 284°
2026-05-07 18:34 51.89540 4.30390 1446 ft 116 kts 294°
2026-05-07 18:35 51.89847 4.29190 1411 ft 115 kts 296°
2026-05-07 18:35 51.89631 4.28638 1483 ft 102 kts 111°
2026-05-07 18:35 51.90018 4.29666 1299 ft 113 kts 52°
2026-05-07 18:35 51.90432 4.30684 1382 ft 106 kts 60°
2026-05-07 18:36 51.90766 4.31722 1394 ft 102 kts 61°
2026-05-07 18:36 51.91105 4.32731 1399 ft 101 kts 61°
2026-05-07 18:36 51.91459 4.33705 1359 ft 103 kts 56°
2026-05-07 18:36 51.91905 4.34705 1162 ft 114 kts 57°
2026-05-07 18:37 51.92342 4.35758 1058 ft 112 kts 58°
2026-05-07 18:37 51.92764 4.36822 947 ft 114 kts 55°
2026-05-07 18:37 51.93166 4.37860 823 ft 95 kts 56°
2026-05-07 18:37 51.93522 4.38696 647 ft 84 kts 54°
2026-05-07 18:38 51.93838 4.39474 544 ft 80 kts 51°
2026-05-07 18:38 51.94135 4.40218 460 ft 77 kts 53°
2026-05-07 18:38 51.94400 4.40909 326 ft 60 kts 49°
2026-05-07 18:38 51.94604 4.41423 167 ft 51 kts 52°
2026-05-07 18:39 51.94878 4.42019 195 ft 75 kts 47°
2026-05-07 18:39 51.95173 4.42762 62 ft 67 kts 55°
2026-05-07 18:39 51.95384 4.43270 -11 ft 40 kts 52°
2026-05-07 18:39 51.95604 4.43814 -11 ft 75 kts 58°
2026-05-07 18:40 51.95872 4.44529 212 ft 64 kts 53°
2026-05-07 18:40 51.96108 4.45133 375 ft 64 kts 50°
2026-05-07 18:40 51.96338 4.45838 498 ft 85 kts 84°
2026-05-07 18:40 51.95946 4.46602 715 ft 104 kts 159°
2026-05-07 18:41 51.95235 4.46674 1005 ft 103 kts 176°
2026-05-07 18:41 51.94597 4.46741 1399 ft 89 kts 167°
2026-05-07 18:41 51.93924 4.46899 1533 ft 105 kts 167°
2026-05-07 18:41 51.93166 4.47121 1625 ft 116 kts 168°
2026-05-07 18:42 51.92333 4.47062 1707 ft 122 kts 214°
2026-05-07 18:42 51.92390 4.46091 1496 ft 96 kts 345°
2026-05-07 18:42 51.93019 4.45871 1463 ft 90 kts 352°
2026-05-07 18:42 51.93631 4.45640 1425 ft 91 kts 352°
2026-05-07 18:43 51.94087 4.46036 1502 ft 80 kts 80°
2026-05-07 18:43 51.93658 4.46625 1450 ft 102 kts 180°
2026-05-07 18:43 51.93178 4.45881 1407 ft 106 kts 257°
2026-05-07 18:43 51.93020 4.44626 1135 ft 120 kts 264°
2026-05-07 18:44 51.92906 4.43301 957 ft 119 kts 259°
2026-05-07 18:44 51.92831 4.42136 771 ft 91 kts 308°
2026-05-07 18:44 51.93290 4.41676 593 ft 71 kts 349°
2026-05-07 18:44 51.93794 4.41597 426 ft 80 kts
2026-05-07 18:45 51.94376 4.41737 301 ft 89 kts 11°
2026-05-07 18:45 51.94920 4.42240 135 ft 87 kts 43°
2026-05-07 18:45 51.95239 4.42932 27 ft 69 kts 52°
2026-05-07 18:45 51.95487 4.43529 -8 ft 60 kts 50°
2026-05-07 18:46 51.95711 4.44093 -9 ft 57 kts 50°
2026-05-07 18:46 51.95894 4.44509 -11 ft 28 kts 52°
2026-05-07 18:46 51.95951 4.44655 -11 ft 12 kts 56°
2026-05-07 18:46 51.95980 4.44762 -11 ft 11 kts 52°
2026-05-07 18:47 51.96068 4.44980 -11 ft 35 kts 56°
2026-05-07 18:47 51.96154 4.45277 -11 ft 25 kts 105°
2026-05-07 18:47 51.96081 4.45407 -11 ft 0 kts 181°
2026-05-07 18:59 51.96008 4.45318 -12 ft 20 kts 237°
2026-05-07 18:59 51.95926 4.45108 -12 ft 21 kts 238°
2026-05-07 18:59 51.95844 4.44928 -12 ft 19 kts 238°
2026-05-07 19:00 51.95782 4.44750 -12 ft 18 kts 237°
2026-05-07 19:00 51.95716 4.44587 -12 ft 17 kts 237°
2026-05-07 19:00 51.95654 4.44429 -12 ft 16 kts 235°
2026-05-07 19:00 51.95592 4.44276 -12 ft 16 kts 236°
2026-05-07 19:01 51.95531 4.44126 -12 ft 16 kts 235°
2026-05-07 19:01 51.95467 4.43979 -12 ft 16 kts 237°
2026-05-07 19:01 51.95430 4.43874 -12 ft 16 kts 238°
2026-05-07 19:01 51.95368 4.43718 -12 ft 16 kts 236°
2026-05-07 19:02 51.95284 4.43520 -12 ft 16 kts 210°
2026-05-07 19:02 51.95186 4.43573 -12 ft 16 kts 146°
2026-05-07 19:02 51.95129 4.43643 -12 ft 15 kts 139°
2026-05-07 19:02 51.95039 4.43726 -12 ft 15 kts 148°
2026-05-07 19:03 51.94953 4.43818 -13 ft 15 kts 148°
2026-05-07 19:03 51.94871 4.43846 -13 ft 13 kts 248°
2026-05-07 19:03 51.94857 4.43736 -13 ft 4 kts 271°
2026-05-07 19:03 51.94867 4.43714 -13 ft 1 kts 330°
2026-05-07 19:04 51.94870 4.43712 -13 ft 1 kts 342°
2026-05-07 19:04 51.94875 4.43708 -13 ft 1 kts 331°
2026-05-07 19:04 51.94890 4.43690 -13 ft 0 kts 319°